sat.trackr.live / text

‹ back to catalog

ONEWEB-0378

NORAD 49304 · 2021-090AB

PAYLOAD ACTIVE UNKNOWN

§ Identity

Operator
Country
UK
Launch date
2021-10-14
Launch site
VOSTO
Launch vehicle
Mass (kg)
RCS (m²)

Purposes: comms

External: N2YO · Heavens-Above · Gunter

§ Orbital elements

Epoch: 2026-09-11T23:59:55.625568Z

Period
109.03 min
Inclination
87.9135°
Eccentricity
0.0002102
Mean motion
13.20771987 rev/d
Perigee alt
1,180.2 km
Apogee alt
1,183.4 km
Semi-major
7,559.9 km
B*
-7.3639e-5
RAAN
257.1221°
Arg perigee
91.1482°
Mean anomaly
268.9892°
Rev number
24,124

§ Raw data

ONEWEB-03781 49304U 21090AB  26254.99994937 -.00000017  00000+0 -73639-4 0  99912 49304  87.9135 257.1221 0002102  91.1482 268.9892 13.20771987241247

JSON: /api/v1/satellites/49304 · /tle

For live sub-satellite position, see the globe view (requires WebGL).

§ Visibility from observer

Set your observer location to see the next 7 days of passes ≥ 10°. The values pass through the URL so the page stays shareable.

No JS? Fill the form by hand. The geolocation button needs JavaScript.